| time (UTC) | temp F | wind direction | speed knots | gust knots | rain 1hr in | rain 24hr in | rain mn in | humidity % | barometer mb |
| 20260906101349 | 72 | 166 | 0.9 | 2.6 | 0.00 | 0.11 | 0.00 | 93 | 1013.5 |
| 20260906100349 | 72 | 166 | 0.0 | 2.6 | 0.00 | 0.11 | 0.00 | 94 | 1013.5 |
| 20260906095349 | 72 | 166 | 0.0 | 0.0 | 0.00 | 0.11 | 0.00 | 93 | 1013.5 |
| 20260906094349 | 72 | 166 | 0.0 | 0.9 | 0.00 | 0.11 | 0.00 | 93 | 1013.6 |
| 20260906093349 | 72 | 166 | 0.0 | 0.9 | 0.00 | 0.11 | 0.00 | 93 | 1013.6 |
| 20260906092349 | 72 | 166 | 0.0 | 0.9 | 0.00 | 0.11 | 0.00 | 93 | 1013.7 |
| 20260906091351 | 72 | 166 | 0.0 | 2.6 | 0.00 | 0.11 | 0.00 | 93 | 1013.6 |
| 20260906090349 | 72 | 160 | 0.9 | 1.7 | 0.00 | 0.11 | 0.00 | 93 | 1013.5 |
| 20260906085349 | 72 | 160 | 1.7 | 3.5 | 0.00 | 0.11 | 0.00 | 93 | 1013.5 |
| 20260906084349 | 72 | 176 | 1.7 | 6.1 | 0.00 | 0.11 | 0.00 | 93 | 1013.6 |
| 20260906083349 | 72 | 161 | 2.6 | 5.2 | 0.00 | 0.11 | 0.00 | 93 | 1013.5 |
| 20260906082349 | 73 | 174 | 0.9 | 5.2 | 0.00 | 0.11 | 0.00 | 94 | 1013.7 |
| 20260906081349 | 72 | 39 | 1.7 | 5.2 | 0.00 | 0.11 | 0.00 | 94 | 1013.6 |
| 20260906080349 | 73 | 258 | 0.9 | 1.7 | 0.00 | 0.11 | 0.00 | 94 | 1013.7 |
| 20260906075349 | 73 | 253 | 0.0 | 0.0 | 0.00 | 0.11 | 0.00 | 94 | 1013.5 |
| 20260906074349 | 73 | 253 | 0.0 | 0.0 | 0.00 | 0.11 | 0.00 | 94 | 1013.4 |
| 20260906073349 | 73 | 253 | 0.0 | 0.0 | 0.00 | 0.11 | 0.00 | 94 | 1013.2 |
| 20260906072349 | 73 | 253 | 0.0 | 0.0 | 0.00 | 0.11 | 0.11 | 94 | 1013.2 |
| 20260906071349 | 73 | 253 | 0.0 | 0.0 | 0.00 | 0.11 | 0.11 | 93 | 1013.0 |
| 20260906070349 | 73 | 253 | 0.0 | 0.0 | 0.00 | 0.11 | 0.11 | 94 | 1013.2 |
| 20260906065349 | 73 | 253 | 0.0 | 0.0 | 0.00 | 0.11 | 0.11 | 93 | 1013.1 |
| 20260906064349 | 73 | 254 | 0.0 | 0.0 | 0.00 | 0.11 | 0.11 | 93 | 1013.0 |
| 20260906063349 | 73 | 254 | 0.0 | 0.0 | 0.00 | 0.11 | 0.11 | 93 | 1013.2 |
| 20260906062349 | 73 | 254 | 0.0 | 0.0 | 0.00 | 0.11 | 0.11 | 92 | 1013.2 |
| 20260906061350 | 74 | 260 | 0.0 | 0.0 | 0.00 | 0.11 | 0.11 | 92 | 1013.1 |
| 20260906060350 | 74 | 260 | 0.0 | 0.0 | 0.00 | 0.11 | 0.11 | 92 | 1013.2 |
| 20260906055350 | 74 | 260 | 0.0 | 0.0 | 0.00 | 0.11 | 0.11 | 92 | 1013.3 |
| 20260906054350 | 74 | 187 | 0.0 | 0.0 | 0.00 | 0.11 | 0.11 | 92 | 1013.4 |
| 20260906053350 | 74 | 187 | 0.0 | 0.0 | 0.00 | 0.11 | 0.11 | 92 | 1013.6 |
| 20260906052350 | 74 | 187 | 0.9 | 1.7 | 0.00 | 0.11 | 0.11 | 92 | 1013.7 |
| 20260906051350 | 74 | 158 | 1.7 | 5.2 | 0.00 | 0.11 | 0.11 | 92 | 1013.7 |
| 20260906050350 | 74 | 158 | 1.7 | 3.5 | 0.00 | 0.11 | 0.11 | 92 | 1014.0 |
| 20260906045350 | 75 | 149 | 0.0 | 0.0 | 0.00 | 0.11 | 0.11 | 91 | 1014.0 |
| 20260906044350 | 75 | 149 | 0.0 | 0.0 | 0.00 | 0.11 | 0.11 | 91 | 1014.2 |
| 20260906043350 | 75 | 149 | 0.0 | 0.0 | 0.00 | 0.11 | 0.11 | 91 | 1014.2 |
| 20260906042350 | 76 | 149 | 0.0 | 0.0 | 0.00 | 0.11 | 0.11 | 90 | 1014.3 |
| 20260906041350 | 76 | 149 | 0.0 | 0.0 | 0.00 | 0.11 | 0.11 | 89 | 1014.2 |
| 20260906040350 | 76 | 149 | 0.0 | 0.0 | 0.00 | 0.11 | 0.11 | 89 | 1014.3 |
| 20260906035350 | 76 | 149 | 0.0 | 0.0 | 0.00 | 0.11 | 0.11 | 89 | 1014.2 |
| 20260906034350 | 76 | 149 | 0.0 | 0.0 | 0.00 | 0.11 | 0.11 | 89 | 1014.1 |
| 20260906033350 | 77 | 149 | 0.0 | 0.0 | 0.00 | 0.11 | 0.11 | 89 | 1014.2 |
| 20260906032350 | 77 | 149 | 0.0 | 0.0 | 0.00 | 0.11 | 0.11 | 87 | 1014.0 |
| 20260906031350 | 78 | 149 | 0.9 | 0.0 | 0.00 | 0.11 | 0.11 | 86 | 1013.9 |
| 20260906030350 | 77 | 149 | 0.9 | 1.7 | 0.00 | 0.11 | 0.11 | 87 | 1014.0 |
| 20260906025350 | 77 | 149 | 0.0 | 0.0 | 0.00 | 0.11 | 0.11 | 88 | 1013.9 |
| 20260906024350 | 77 | 149 | 0.9 | 2.6 | 0.00 | 0.11 | 0.11 | 88 | 1013.6 |
| 20260906023350 | 76 | 150 | 0.0 | 0.0 | 0.00 | 0.11 | 0.11 | 89 | 1013.6 |
| 20260906022350 | 76 | 150 | 0.0 | 0.0 | 0.00 | 0.11 | 0.11 | 89 | 1013.4 |
| 20260906021350 | 76 | 150 | 0.0 | 0.0 | 0.00 | 0.11 | 0.11 | 89 | 1013.6 |
| 20260906020350 | 76 | 150 | 0.9 | 0.9 | 0.00 | 0.11 | 0.11 | 89 | 1013.6 |
| 20260906015350 | 76 | 149 | 0.9 | 1.7 | 0.00 | 0.11 | 0.11 | 89 | 1013.6 |
| 20260906014350 | 77 | 149 | 1.7 | 4.3 | 0.00 | 0.11 | 0.11 | 89 | 1013.8 |
| 20260906013350 | 77 | 167 | 0.9 | 3.5 | 0.00 | 0.11 | 0.11 | 87 | 1013.8 |
| 20260906012350 | 77 | 184 | 0.9 | 1.7 | 0.00 | 0.11 | 0.11 | 86 | 1013.6 |
| 20260906011350 | 78 | 184 | 0.9 | 1.7 | 0.00 | 0.11 | 0.11 | 85 | 1013.4 |
| 20260906010350 | 78 | 208 | 0.9 | 1.7 | 0.00 | 0.11 | 0.11 | 84 | 1013.2 |
| 20260906005350 | 78 | 228 | 0.0 | 0.0 | 0.00 | 0.11 | 0.11 | 84 | 1013.2 |
| 20260906004350 | 79 | 228 | 0.0 | 0.0 | 0.00 | 0.11 | 0.11 | 83 | 1013.2 |
| 20260906003350 | 79 | 228 | 0.0 | 0.0 | 0.00 | 0.11 | 0.11 | 82 | 1013.4 |
| 20260906002350 | 79 | 228 | 0.0 | 0.0 | 0.00 | 0.11 | 0.11 | 82 | 1013.4 |
| 20260906001350 | 80 | 228 | 0.0 | 1.7 | 0.00 | 0.11 | 0.11 | 82 | 1013.3 |
| 20260906000350 | 80 | 231 | 0.0 | 0.9 | 0.00 | 0.11 | 0.11 | 80 | 1013.2 |
| 20260905235350 | 80 | 230 | 0.9 | 2.6 | 0.00 | 0.11 | 0.11 | 80 | 1013.2 |
| 20260905234350 | 81 | 159 | 0.9 | 3.5 | 0.00 | 0.11 | 0.11 | 79 | 1013.2 |
| 20260905233350 | 81 | 259 | 0.9 | 2.6 | 0.00 | 0.11 | 0.11 | 78 | 1013.2 |
| 20260905232350 | 82 | 314 | 1.7 | 4.3 | 0.00 | 0.11 | 0.11 | 78 | 1013.1 |
| 20260905231350 | 83 | 214 | 1.7 | 6.1 | 0.00 | 0.11 | 0.11 | 79 | 1013.0 |
| 20260905230350 | 84 | 244 | 1.7 | 2.6 | 0.00 | 0.11 | 0.11 | 79 | 1012.9 |
| 20260905225350 | 84 | 264 | 1.7 | 5.2 | 0.00 | 0.11 | 0.11 | 79 | 1012.9 |
| 20260905224350 | 84 | 257 | 1.7 | 5.2 | 0.00 | 0.11 | 0.11 | 79 | 1012.7 |
| 20260905223350 | 84 | 195 | 1.7 | 3.5 | 0.00 | 0.11 | 0.11 | 79 | 1012.6 |
| 20260905222350 | 85 | 171 | 1.7 | 5.2 | 0.00 | 0.11 | 0.11 | 78 | 1012.5 |
| 20260905221350 | 87 | 235 | 1.7 | 3.5 | 0.00 | 0.11 | 0.11 | 77 | 1012.6 |
| 20260905220351 | 87 | 246 | 0.9 | 2.6 | 0.00 | 0.11 | 0.11 | 76 | 1012.7 |
| 20260905215351 | 87 | 259 | 0.9 | 2.6 | 0.00 | 0.11 | 0.11 | 77 | 1012.9 |
| 20260905214351 | 87 | 254 | 0.9 | 2.6 | 0.00 | 0.11 | 0.11 | 78 | 1013.1 |
| 20260905213351 | 87 | 179 | 1.7 | 3.5 | 0.00 | 0.11 | 0.11 | 78 | 1013.1 |
| 20260905212351 | 87 | 161 | 1.7 | 3.5 | 0.00 | 0.11 | 0.11 | 79 | 1013.1 |
| 20260905211351 | 87 | 185 | 1.7 | 2.6 | 0.00 | 0.11 | 0.11 | 77 | 1013.0 |
| 20260905210351 | 87 | 187 | 0.9 | 2.6 | 0.00 | 0.11 | 0.11 | 77 | 1013.2 |
| 20260905205351 | 87 | 204 | 1.7 | 3.5 | 0.00 | 0.11 | 0.11 | 77 | 1013.3 |
| 20260905204351 | 87 | 166 | 0.9 | 2.6 | 0.00 | 0.11 | 0.11 | 78 | 1013.4 |
| 20260905203351 | 87 | 150 | 0.9 | 2.6 | 0.00 | 0.11 | 0.11 | 78 | 1013.4 |
| 20260905202351 | 85 | 153 | 0.9 | 1.7 | 0.00 | 0.11 | 0.11 | 81 | 1013.6 |
| 20260905201351 | 83 | 154 | 0.9 | 2.6 | 0.00 | 0.11 | 0.11 | 84 | 1013.7 |
| 20260905200351 | 82 | 165 | 0.9 | 3.5 | 0.00 | 0.11 | 0.11 | 88 | 1013.6 |
| 20260905195351 | 80 | 152 | 1.7 | 4.3 | 0.00 | 0.11 | 0.11 | 89 | 1013.8 |
| 20260905194351 | 80 | 180 | 1.7 | 7.0 | 0.00 | 0.11 | 0.11 | 91 | 1014.0 |
| 20260905193351 | 80 | 179 | 0.0 | 0.0 | 0.00 | 0.11 | 0.11 | 92 | 1014.1 |
| 20260905192351 | 79 | 179 | 0.0 | 0.0 | 0.00 | 0.11 | 0.11 | 92 | 1014.0 |
| 20260905191351 | 79 | 183 | 0.9 | 1.7 | 0.00 | 0.11 | 0.11 | 92 | 1014.4 |
| 20260905190351 | 79 | 197 | 0.9 | 2.6 | 0.00 | 0.11 | 0.11 | 92 | 1014.6 |
| 20260905185351 | 79 | 324 | 2.6 | 4.3 | 0.01 | 0.11 | 0.11 | 91 | 1014.6 |
| 20260905184351 | 78 | 326 | 1.7 | 4.3 | 0.11 | 0.11 | 0.11 | 91 | 1014.6 |
| 20260905183351 | 79 | 314 | 0.9 | 4.3 | 0.11 | 0.11 | 0.11 | 90 | 1014.3 |
| 20260905182351 | 79 | 260 | 0.9 | 2.6 | 0.11 | 0.11 | 0.11 | 89 | 1014.6 |
| 20260905181351 | 80 | 287 | 2.6 | 5.2 | 0.11 | 0.11 | 0.11 | 86 | 1014.5 |
| 20260905180351 | 83 | 345 | 0.9 | 2.6 | 0.11 | 0.11 | 0.11 | 80 | 1014.5 |
| 20260905175351 | 86 | 25 | 2.6 | 6.1 | 0.10 | 0.10 | 0.10 | 74 | 1014.8 |
| 20260905174351 | 92 | 345 | 1.7 | 10.4 | 0.00 | 0.00 | 0.00 | 64 | 1014.7 |
| 20260905173351 | 93 | 60 | 1.7 | 4.3 | 0.00 | 0.00 | 0.00 | 61 | 1014.7 |
| 20260905172351 | 93 | 350 | 1.7 | 8.7 | 0.00 | 0.00 | 0.00 | 61 | 1014.7 |
| 20260905171351 | 93 | 136 | 0.9 | 4.3 | 0.00 | 0.00 | 0.00 | 62 | 1014.5 |
| 20260905170351 | 92 | 42 | 0.9 | 2.6 | 0.00 | 0.00 | 0.00 | 64 | 1014.8 |
| 20260905165351 | 90 | 345 | 1.7 | 3.5 | 0.00 | 0.00 | 0.00 | 67 | 1014.9 |
| 20260905164351 | 90 | 305 | 2.6 | 4.3 | 0.00 | 0.00 | 0.00 | 66 | 1015.2 |
| 20260905163351 | 90 | 344 | 0.9 | 3.5 | 0.00 | 0.00 | 0.00 | 67 | 1015.1 |
| 20260905162351 | 89 | 264 | 0.9 | 3.5 | 0.00 | 0.00 | 0.00 | 66 | 1015.4 |
| 20260905161351 | 88 | 272 | 1.7 | 2.6 | 0.00 | 0.00 | 0.00 | 72 | 1015.4 |
| 20260905160351 | 88 | 314 | 0.9 | 3.5 | 0.00 | 0.00 | 0.00 | 71 | 1015.4 |
| 20260905155351 | 88 | 278 | 1.7 | 2.6 | 0.00 | 0.00 | 0.00 | 71 | 1015.5 |
| 20260905154351 | 88 | 161 | 0.9 | 4.3 | 0.00 | 0.00 | 0.00 | 71 | 1015.5 |
| 20260905153351 | 88 | 354 | 0.0 | 2.6 | 0.00 | 0.00 | 0.00 | 72 | 1015.5 |
| 20260905152351 | 86 | 343 | 0.9 | 2.6 | 0.00 | 0.00 | 0.00 | 74 | 1015.6 |
| 20260905151351 | 86 | 262 | 0.0 | 0.0 | 0.00 | 0.00 | 0.00 | 74 | 1015.6 |
| 20260905150351 | 85 | 272 | 0.0 | 0.9 | 0.00 | 0.00 | 0.00 | 74 | 1015.7 |
| 20260905145351 | 85 | 272 | 1.7 | 2.6 | 0.00 | 0.00 | 0.00 | 75 | 1015.8 |
| 20260905144351 | 85 | 187 | 0.9 | 2.6 | 0.00 | 0.00 | 0.00 | 77 | 1015.8 |
| 20260905143351 | 83 | 193 | 0.9 | 2.6 | 0.00 | 0.00 | 0.00 | 78 | 1015.9 |
| 20260905142351 | 82 | 313 | 1.7 | 2.6 | 0.00 | 0.00 | 0.00 | 79 | 1015.9 |
| 20260905141351 | 82 | 307 | 0.0 | 2.6 | 0.00 | 0.00 | 0.00 | 80 | 1016.0 |
| 20260905140351 | 81 | 306 | 0.9 | 2.6 | 0.00 | 0.00 | 0.00 | 82 | 1015.9 |
| 20260905135351 | 81 | 304 | 0.9 | 2.6 | 0.00 | 0.00 | 0.00 | 83 | 1016.1 |
| 20260905134351 | 80 | 281 | 0.0 | 0.0 | 0.00 | 0.00 | 0.00 | 84 | 1016.2 |
| 20260905133352 | 80 | 289 | 0.0 | 0.0 | 0.00 | 0.00 | 0.00 | 85 | 1016.3 |
| 20260905132352 | 79 | 288 | 0.0 | 0.0 | 0.00 | 0.00 | 0.00 | 86 | 1016.3 |
| 20260905131352 | 78 | 273 | 0.0 | 0.0 | 0.00 | 0.00 | 0.00 | 87 | 1016.4 |
| 20260905130352 | 77 | 272 | 0.0 | 0.0 | 0.00 | 0.00 | 0.00 | 89 | 1016.4 |
| 20260905125352 | 76 | 272 | 0.0 | 0.0 | 0.00 | 0.00 | 0.00 | 92 | 1016.4 |
| 20260905124352 | 75 | 272 | 0.0 | 0.0 | 0.00 | 0.00 | 0.00 | 92 | 1016.3 |
| 20260905123352 | 75 | 272 | 0.0 | 0.0 | 0.00 | 0.00 | 0.00 | 93 | 1016.3 |
| 20260905122352 | 75 | 273 | 0.0 | 0.0 | 0.00 | 0.00 | 0.00 | 93 | 1016.3 |
| 20260905121352 | 74 | 273 | 0.0 | 0.0 | 0.00 | 0.00 | 0.00 | 93 | 1016.2 |
| 20260905120352 | 74 | 273 | 0.0 | 0.0 | 0.00 | 0.00 | 0.00 | 94 | 1016.2 |
| 20260905115352 | 74 | 273 | 0.0 | 0.0 | 0.00 | 0.00 | 0.00 | 94 | 1016.1 |
| 20260905114352 | 73 | 273 | 0.0 | 0.0 | 0.00 | 0.00 | 0.00 | 93 | 1015.9 |
| 20260905113352 | 73 | 273 | 0.0 | 0.0 | 0.00 | 0.00 | 0.00 | 93 | 1015.7 |
| 20260905112352 | 73 | 273 | 0.0 | 0.0 | 0.00 | 0.00 | 0.00 | 93 | 1015.6 |
| 20260905111352 | 73 | 273 | 0.9 | 1.7 | 0.00 | 0.00 | 0.00 | 92 | 1015.5 |
| 20260905110352 | 74 | 273 | 0.0 | 0.0 | 0.00 | 0.00 | 0.00 | 92 | 1015.4 |
| 20260905105352 | 74 | 273 | 0.0 | 0.0 | 0.00 | 0.00 | 0.00 | 92 | 1015.2 |
| 20260905104352 | 74 | 273 | 0.9 | 2.6 | 0.00 | 0.00 | 0.00 | 92 | 1015.2 |
| 20260905103352 | 74 | 205 | 0.0 | 0.0 | 0.00 | 0.00 | 0.00 | 92 | 1015.1 |
| 20260905102352 | 74 | 205 | 0.9 | 2.6 | 0.00 | 0.00 | 0.00 | 92 | 1014.9 |